Regional Weather Roundup
Issued by NWS

Home | Current Version | Previous Version | Graphics & Text | Print | Product List | Glossary Off
Versions: 1 2 3 4 5 6 7 8 9 10 11 12 13 14 15 16 17 18 19 20 21 22 23 24 25 26 27 28 29 30 31 32 33 34 35 36 37 38 39 40 41 42 43 44 45 46 47 48 49 50

000
ASUS43 KDTX 201701
RWRMI
MICHIGAN HOURLY REGIONAL WEATHER ROUNDUP
NATIONAL WEATHER SERVICE DETROIT/PONTIAC MI
100 PM EDT WED AUG 20 2014

NOTE: "FAIR" INDICATES FEW OR NO CLOUDS BELOW 12,000 FEET WITH NO
SIGNIFICANT WEATHER AND/OR OBSTRUCTION TO VISIBILITY.

MIZ047>049-052>055-059>063-066>070-074>076-081>083-201800-
SOUTHEAST LOWER MICHIGAN

CITY           SKY/WX    TMP DP  RH WIND       PRES   REMARKS
ADRIAN         PTSUNNY   80  64  58 W8        29.89S
ALMA           MOSUNNY   75  65  70 W7        29.86S
ANN ARBOR      MOSUNNY   80  66  62 W12       29.88S
BAD AXE        PTSUNNY   77  68  75 W5        29.85S
CARO           PTSUNNY   74  68  80 SW7       29.85S
DETROIT CITY   PTSUNNY   80  68  66 W8        29.86S
DETROIT        PTSUNNY   77  69  76 SW9       29.87F
FLINT          MOSUNNY   74  66  76 VRB6      29.87R
GROSSE ILE     CLOUDY    73  70  88 W6        29.87S
HILLSDALE      PTSUNNY   80  65  61 SW7       29.90F
HOWELL         MOSUNNY   77  64  63 W9        29.88R

CITY           SKY/WX    TMP DP  RH WIND       PRES   REMARKS
JACKSON        PTSUNNY   77  65  66 W8        29.89R
LAMBERTVILLE   MOSUNNY   81  68  65 W7        29.89R
LANSING        PTSUNNY   78  64  61 W12       29.88R
LAPEER         PTSUNNY   76  67  74 W3        29.86S
MASON          MOSUNNY   77  64  63 W8        29.88S
MT. CLEMENS    PTSUNNY   77  68  72 S6        29.85R
PONTIAC        PTSUNNY   77  66  68 W8        29.87S
PORT HOPE        N/A     73  66  78 MISG      29.83S
PORT HURON     RAIN      73  70  88 CALM      29.86S
TRI CITIES     PTSUNNY   78  67  68 W8        29.86R
TROY           PTSUNNY   79  68  68 SW8       29.87F
SAGINAW HB     PTSUNNY   77  66  69 SW9       29.85R
$$
MIZ043>046-050>051-056>058-064>065-071>073-077>080-201800-
SOUTHWEST LOWER MICHIGAN

CITY           SKY/WX    TMP DP  RH WIND       PRES   REMARKS
BATTLE CREEK   PTSUNNY   78  62  57 W9        29.90S
BENTON HARBOR  SUNNY     77  65  66 W10       29.91R
BIG RAPIDS     CLOUDY    72  65  80 NW9G16    29.87S
COLDWATER      MOSUNNY   82  65  58 W12       29.90S
FREMONT        FAIR      76  61  60 W6        29.87S
HOLLAND        SUNNY     77  67  71 W9        29.90S
GRAND RAPIDS   PTSUNNY   76  67  73 W9        29.88R
IONIA          PTSUNNY   78  63  58 W10       29.87R
KALAMAZOO      PTSUNNY   79  62  56 W9        29.89S
LUDINGTON      PTSUNNY   69  63  79 W6        29.89R
MARSHALL       PTSUNNY   75  64  68 SW6       29.89S
MOUNT PLEASANT PTSUNNY   72  67  87 CALM      29.85R
MUSKEGON       MOSUNNY   73  64  73 W9        29.89R
SOUTH HAVEN    SUNNY     77  68  72 W6        29.91R
$$
MIZ016>042-201800-
NORTHERN LOWER MICHIGAN

CITY           SKY/WX    TMP DP  RH WIND       PRES   REMARKS
ALPENA         CLOUDY    73  64  73 SW5       29.83S
BEAVER ISLAND  CLOUDY    64  62  91 NW6       29.85R
BELLAIRE       CLOUDY    67  61  79 CALM      29.85S
CADILLAC       CLOUDY    68  63  83 SW8       29.88R
CHARLEVOIX     CLOUDY    64  64  99 W9        29.88R FOG
FRANKFORT      CLOUDY    66  61  84 W5        29.88R
GAYLORD        CLOUDY    67  60  78 SW13      29.87R
GRAYLING       PTSUNNY   72  63  73 NW6       29.87S
HARBOR SPRINGS CLOUDY    66  63  91 W3        29.85R
HOUGHTON LAKE  CLOUDY    71  62  73 W8        29.87R
MANISTEE       CLOUDY    68  57  68 W9        29.89R
OSCODA         CLOUDY    69  66  89 CALM      29.83R
PELLSTON       CLOUDY    66  63  90 SW5       29.85R
TRAVERSE CITY  CLOUDY    70  61  73 W8        29.85R
$$
MIZ007>008-015-201800-
EASTERN UPPER MICHIGAN

CITY           SKY/WX    TMP DP  RH WIND       PRES   REMARKS
KINROSS        CLOUDY    64  63  94 CALM      29.84S
MACKINAC ISLAN CLOUDY    62  62 100 NE3       29.84R FOG
NEWBERRY       CLOUDY    63  61  94 NW6       29.85R
S. S. MARIE    CLOUDY    65  63  93 SE5       29.84R
$$
MIZ004>006-011>014-085-201800-
CENTRAL UPPER MICHIGAN

CITY           SKY/WX    TMP DP  RH WIND       PRES   REMARKS
MANISTIQUE     DRIZZLE   63  62  97 N5        29.85R
ESCANABA       CLOUDY    64  57  77 N5        29.87R
MENOMINEE      CLOUDY    68  61  77 W5        29.87R
SAWYER-GWINN   CLOUDY    64  59  82 NW5       29.88R
$$
MIZ001>003-009>011-084-201800-
WESTERN UPPER MICHIGAN

CITY           SKY/WX    TMP DP  RH WIND       PRES   REMARKS
IRON MOUNTAIN  CLOUDY    67  58  72 N6        29.87S
HOUGHTON       CLOUDY    59  57  93 NW12      29.89R FOG
COPPER HARBOR    N/A     53  52  96 N7        29.87R
IRONWOOD       CLOUDY    64  61  88 N3        29.88R
$$

ABBREVIATIONS USED IN REMARKS
   TC - TEMPERATURE IN CELSIUS
  WCI - WIND CHILL INDEX
   HX - HEAT INDEX
  VSB - VISIBILITY



USA.gov is the U.S. government's official web portal to all federal, state and local government web resources and services.